Powrót do katalogu

STARLINK-5734

AktywnyŁącznośćVLEO
NORAD 55612·PAYLOAD·🇺🇸 United States

Wystrzelony Feb 12, 2023 z Cape Canaveral Space Force Station

Loading…

Następne Przeloty (najbliższe 24 godziny)

TLE

ŚwieżeSource: CelesTrak SupGP

Epoka: Sep 15, 2026, 02:03 UTC

1 55612C 23020AV  26258.08590278 -.00012972  00000+0 -46982-3 0  2580
2 55612  43.0025   5.0239 0001933 269.0802 329.6057 15.27586524    15

Śledź STARLINK-5734 w czasie rzeczywistym z AllMySat

Download on the App Store